TimeCST,TemperatureF,Dew PointF,Humidity,Sea Level PressureIn,VisibilityMPH,Wind Direction,Wind SpeedMPH,Gust SpeedMPH,PrecipitationIn,Events,Conditions,WindDirDegrees,DateUTC
12:52 AM,17.1,10.0,74,30.71,10.0,NNE,6.9,-,N/A,,Clear,20,2013-11-24 06:52:00
1:52 AM,16.0,9.0,74,30.69,10.0,NNE,6.9,-,N/A,,Clear,20,2013-11-24 07:52:00
2:52 AM,15.1,9.0,77,30.71,10.0,NNE,8.1,-,N/A,,Clear,30,2013-11-24 08:52:00
3:52 AM,15.1,9.0,77,30.71,10.0,NE,9.2,-,N/A,,Clear,40,2013-11-24 09:52:00
4:52 AM,15.1,8.1,74,30.72,10.0,NE,10.4,-,N/A,,Clear,40,2013-11-24 10:52:00
5:52 AM,14.0,8.1,77,30.72,10.0,NE,5.8,-,N/A,,Clear,50,2013-11-24 11:52:00
6:52 AM,15.1,8.1,74,30.73,10.0,East,5.8,-,N/A,,Clear,80,2013-11-24 12:52:00
7:52 AM,15.1,9.0,77,30.72,10.0,East,5.8,-,N/A,,Clear,90,2013-11-24 13:52:00
8:52 AM,17.1,9.0,71,30.72,10.0,ESE,6.9,-,N/A,,Clear,110,2013-11-24 14:52:00
9:52 AM,19.0,10.0,68,30.71,10.0,ESE,4.6,-,N/A,,Clear,110,2013-11-24 15:52:00
10:52 AM,21.9,9.0,58,30.69,10.0,Variable,3.5,-,N/A,,Clear,0,2013-11-24 16:52:00
11:52 AM,24.1,8.1,51,30.65,10.0,SSE,4.6,-,N/A,,Clear,150,2013-11-24 17:52:00
12:52 PM,26.1,7.0,44,30.60,10.0,East,5.8,-,N/A,,Clear,100,2013-11-24 18:52:00
1:52 PM,28.0,7.0,41,30.57,10.0,East,6.9,-,N/A,,Clear,90,2013-11-24 19:52:00
2:52 PM,28.9,5.0,36,30.55,10.0,ESE,8.1,-,N/A,,Clear,110,2013-11-24 20:52:00
3:52 PM,28.9,6.1,38,30.54,10.0,SSE,6.9,-,N/A,,Clear,150,2013-11-24 21:52:00
4:52 PM,28.9,5.0,36,30.53,10.0,SE,6.9,-,N/A,,Overcast,140,2013-11-24 22:52:00
5:52 PM,28.9,7.0,40,30.51,10.0,SSE,8.1,-,N/A,,Mostly Cloudy,150,2013-11-24 23:52:00
6:52 PM,28.0,7.0,41,30.49,10.0,SE,12.7,-,N/A,,Overcast,140,2013-11-25 00:52:00
7:52 PM,28.0,8.1,43,30.47,10.0,SE,12.7,-,N/A,,Overcast,140,2013-11-25 01:52:00
8:52 PM,28.0,8.1,43,30.44,10.0,SSE,13.8,-,N/A,,Overcast,160,2013-11-25 02:52:00
9:52 PM,28.0,9.0,45,30.41,10.0,SE,13.8,-,N/A,,Overcast,140,2013-11-25 03:52:00
10:52 PM,28.0,9.0,45,30.41,10.0,SSE,12.7,-,N/A,,Overcast,150,2013-11-25 04:52:00
11:52 PM,28.9,9.0,43,30.38,10.0,SE,13.8,-,N/A,,Overcast,140,2013-11-25 05:52:00